STARLINK-1030 (44735 NORAD) Tracking and Keplerian Element Data

This shows tracking and keplerian element data for the satellite.

Feedback or suggestion? Click here.




ElementValue
Catalog44735
NameSTARLINK-1030
Epoch Orbit1141
Epoch Day23.25001157
Epoch Year2020
RAAN172.2811
Inclination53.0066
Eccentricity0.0001445
Argument of Perigee75.6532
Mean Anonmoly148.7882
Mean Motion15.32099915
Decay Rate-0.00040323
L11 44735U 19074Y 20023.25001157 -.00040323 00000-0 -12783-2 0 9999
L22 44735 53.0066 172.2811 0001445 75.6532 148.7882 15.32099915 11418

Live tracking and technical data element details for STARLINK-1030 (NORAD 44735). STARLINK-1030 can be tracked NOW for your location showing map with azimuth and elevation plus other details from your city location.

Track the satellite on the map from your city or location and see movement details for azimuth, elevation, latitude, longitude, range, height, and movement on the map or in text.







IsCatalogInMostPopularTable: catalog: 44735, numindb: 10
Update: records affected: 1



GetName: 44735 STARLINK-1030

Hit Count: updated at: Fri, 24 Jan 2020 10:25:49 GMT